Location: Miles
(41.4492°N, 81.6087°W)
Time: 01:00:00
(UTC+00:00)

Courier 1B Rocket - Pass Details

Date: 17 September 2024
Orbit: 920 x 1201 km, 28.3° (Epoch: 15 October)

Event Time Altitude Azimuth Distance (km) Brightness Sun altitude
Rises 00:06:51 0° 255° (WSW) 3,790 9.5 -7.1°
Reaches altitude 10° 00:10:04 10° 242° (WSW) 2,886 8.3 -7.7°
Maximum altitude 00:15:27 23° 192° (SSW) 2,137 6.8 -8.7°
Drops below altitude 10° 00:21:06 10° 143° (SE) 3,035 7.1 -9.8°
Enters shadow 00:22:43 - 136° (SE) 3,480 7.4 -10.1°
Sets 00:24:36 0° 130° (SE) 4,032 - -10.4°
